Poplar Bluff, MO

5:36 AM CDT on July 17, 2019 (GMT -0500)
Poplar Bluff Municipal

Weather History for KPOF - May, 2019

Change the Weather History Date:

Monday, May 20, 2019

  Actual Average Record
Temperature  
Mean Temperature 66 °F -  
Max Temperature 79 °F 80 °F 93 °F (1941)
Min Temperature 55 °F 57 °F 41 °F (1929)
Cooling Degree Days 2    
Growing Degree Days 16 (Base 50)    
Moisture  
Dew Point 58 °F    
Average Humidity 70    
Maximum Humidity 97    
Minimum Humidity 48    
Precipitation  
Precipitation 0.00 in - - ()
Sea Level Pressure  
Sea Level Pressure 29.99 in    
Wind  
Wind Speed 5 mph (NE)    
Max Wind Speed 10 mph    
Max Gust Speed -    
Visibility 10 miles    
Events      
Averages and records for this station are not official NWS values.
T = Trace of Precipitation, MM = Missing Value Source: NWS Daily Summary

Daily Weather History Graph

Daily Weather History Graph

Search for Another Location

Airport or City:

Astronomy

May. 20, 2019 Rise Set
Actual Time 5:50 AM CDT 8:05 PM CDT
Civil Twilight 5:20 AM CDT 8:35 PM CDT
Nautical Twilight 4:45 AM CDT 9:11 PM CDT
Astronomical Twilight 4:05 AM CDT 9:50 PM CDT
Moon 10:06 PM CDT (5/20) 7:18 AM CDT (5/20)
Length of Visible Light 15h 14m
Length of Day
14h 15m
Waning Gibbous, 96% of the Moon is Illuminated
May 20
Waning Gibbous
May 26
Last Quarter
Jun 3
New
Jun 10
First Quarter
Jun 17
Full

Hourly Weather History & Observations

Time (CDT) Temp. Dew Point Humidity Pressure Visibility Wind Dir Wind Speed Gust Speed Precip Events Conditions
12:53 AM 61.0 °F 57.9 °F 90% 29.96 in 10.0 mi WNW 6.9 mph - N/A   Clear
1:53 AM 61.0 °F 57.9 °F 90% 29.98 in 10.0 mi Calm Calm - N/A   Clear
2:53 AM 59.0 °F 57.0 °F 93% 29.98 in 10.0 mi NW 4.6 mph - N/A   Clear
3:53 AM 57.0 °F 55.9 °F 96% 29.99 in 10.0 mi Calm Calm - N/A   Clear
4:53 AM 57.0 °F 55.9 °F 96% 30.02 in 10.0 mi NNW 4.6 mph - N/A   Clear
5:53 AM 55.9 °F 55.0 °F 97% 30.04 in 10.0 mi NNW 8.1 mph - N/A   Clear
6:53 AM 60.1 °F 55.9 °F 86% 30.06 in 10.0 mi Calm Calm - N/A   Clear
7:53 AM 64.0 °F 57.0 °F 78% 30.06 in 10.0 mi NNE 4.6 mph - N/A   Clear
8:53 AM 66.9 °F 55.0 °F 66% 30.08 in 10.0 mi NE 6.9 mph - N/A   Clear
9:53 AM 70.0 °F 54.0 °F 57% 30.08 in 10.0 mi Variable 5.8 mph - N/A   Clear
10:53 AM 71.1 °F 54.0 °F 55% 30.07 in 10.0 mi North - - N/A   Clear
11:53 AM 73.0 °F 55.9 °F 55% 30.06 in 10.0 mi North - - N/A   Clear
12:53 PM 73.9 °F 55.9 °F 53% 30.04 in 10.0 mi Variable 3.5 mph - N/A   Clear
1:53 PM 75.9 °F 59.0 °F 56% 30.03 in 10.0 mi SE 6.9 mph - N/A   Clear
2:53 PM 78.1 °F 57.0 °F 48% 30.00 in 10.0 mi Calm Calm - N/A   Clear
3:53 PM 78.1 °F 60.1 °F 54% 29.99 in 10.0 mi Calm Calm - N/A   Clear
4:53 PM 78.1 °F 61.0 °F 56% 29.96 in 10.0 mi Variable 3.5 mph - N/A   Clear
5:53 PM 78.1 °F 62.1 °F 58% 29.92 in 10.0 mi East 9.2 mph - N/A   Clear
6:53 PM 77.0 °F 62.1 °F 60% 29.91 in 10.0 mi East 8.1 mph - N/A   Clear
7:53 PM 73.9 °F 62.1 °F 66% 29.90 in 10.0 mi East 4.6 mph - N/A   Clear
8:53 PM 72.0 °F 60.1 °F 66% 29.91 in 10.0 mi ENE 10.4 mph - N/A   Clear
9:53 PM 71.1 °F 57.9 °F 63% 29.88 in 10.0 mi East 9.2 mph - N/A   Clear
10:53 PM 70.0 °F 57.9 °F 65% 29.88 in 10.0 mi ENE 6.9 mph - N/A   Partly Cloudy
11:53 PM 70.0 °F 59.0 °F 68% 29.87 in 10.0 mi East 5.8 mph - N/A   Mostly Cloudy